ET915 DNKA-FMEE

Flight info

Callsign ET915
Flight time N/A
Altitude 34000
Route KUA UV456 ABC/N0505F330 UT475 BIRIX/N0497F350 UT475 MPK UL433 NN UA401 LUGAP/N0492F370 UA401 KINAN UB790 DOBUT DOBUT2R
Aircraft B77W/H-SDE1E2E3FGHIJ2J3J4J5M1RWXY/LB1D1

Departure

Time N/A
Airport Kaduna International Airport (DNKA)

Arrival

Time 2026-04-26 16:54
Airport Roland Garros Airport (FMEE)
Time Latitude Longitude Altitude Speed Heading
2026-04-26 10:12 8.14483 9.37689 30963 ft 507 kts 112°
2026-04-26 10:12 8.13167 9.40990 30963 ft 507 kts 112°
2026-04-26 10:12 8.10548 9.47553 30955 ft 507 kts 112°
2026-04-26 10:13 8.07915 9.54150 30959 ft 506 kts 112°
2026-04-26 10:13 8.05283 9.60739 30958 ft 505 kts 112°
2026-04-26 10:14 8.02656 9.67313 30958 ft 505 kts 112°
2026-04-26 10:14 8.00049 9.73833 30957 ft 504 kts 112°
2026-04-26 10:15 7.97422 9.80401 30954 ft 504 kts 112°
2026-04-26 10:15 7.94798 9.86961 30960 ft 503 kts 112°
2026-04-26 10:16 7.92180 9.93500 30954 ft 502 kts 112°
2026-04-26 10:16 7.89565 10.00023 30954 ft 501 kts 112°
2026-04-26 10:17 7.86991 10.06438 30953 ft 500 kts 112°
2026-04-26 10:17 7.84404 10.12888 30956 ft 499 kts 112°
2026-04-26 10:18 7.81797 10.19384 30956 ft 498 kts 112°
2026-04-26 10:18 7.79186 10.25887 30954 ft 498 kts 112°
2026-04-26 10:19 7.76588 10.32356 30962 ft 498 kts 112°
2026-04-26 10:19 7.73984 10.38833 30964 ft 498 kts 112°
2026-04-26 10:20 7.71812 10.44229 30975 ft 501 kts 112°
2026-04-26 10:20 7.68737 10.51856 30980 ft 507 kts 112°
2026-04-26 10:21 7.66066 10.58484 30978 ft 512 kts 112°
2026-04-26 10:21 7.63394 10.65112 30978 ft 515 kts 112°
2026-04-26 10:22 7.60684 10.71832 30978 ft 518 kts 112°
2026-04-26 10:22 7.57956 10.78590 30989 ft 518 kts 112°
2026-04-26 10:23 7.55240 10.85317 30983 ft 517 kts 112°
2026-04-26 10:23 7.52549 10.91980 30988 ft 515 kts 112°
2026-04-26 10:24 7.49853 10.98651 30991 ft 513 kts 112°
2026-04-26 10:24 7.47200 11.05211 30985 ft 512 kts 112°
2026-04-26 10:25 7.44513 11.11852 31009 ft 511 kts 112°
2026-04-26 10:25 7.41830 11.18481 31009 ft 510 kts 112°
2026-04-26 10:26 7.39150 11.25099 31001 ft 509 kts 112°
2026-04-26 10:26 7.36475 11.31700 30997 ft 509 kts 113°
2026-04-26 10:27 7.33816 11.38258 31002 ft 508 kts 113°
2026-04-26 10:27 7.31140 11.44859 31005 ft 509 kts 113°
2026-04-26 10:28 7.28460 11.51463 30992 ft 509 kts 113°
2026-04-26 10:28 7.25780 11.58069 30999 ft 510 kts 113°
2026-04-26 10:29 7.23094 11.64682 31010 ft 510 kts 113°
2026-04-26 10:29 7.20402 11.71310 31012 ft 511 kts 113°
2026-04-26 10:30 7.17734 11.77900 31018 ft 511 kts 113°
2026-04-26 10:30 7.15100 11.84543 31013 ft 510 kts 112°
2026-04-26 10:31 7.12414 11.91160 31035 ft 509 kts 113°
2026-04-26 10:31 7.09715 11.97749 31035 ft 509 kts 113°
2026-04-26 10:32 7.07065 12.04233 31035 ft 509 kts 113°
2026-04-26 10:32 7.04376 12.10828 31039 ft 509 kts 113°
2026-04-26 10:33 7.01701 12.17390 31035 ft 509 kts 113°
2026-04-26 10:33 6.99013 12.23979 31035 ft 509 kts 113°
2026-04-26 10:34 6.96321 12.30571 31023 ft 510 kts 113°
2026-04-26 10:34 6.93624 12.37178 31024 ft 510 kts 113°
2026-04-26 10:35 6.90927 12.43777 31022 ft 510 kts 113°
2026-04-26 10:35 6.88240 12.50353 31016 ft 509 kts 113°
2026-04-26 10:36 6.85546 12.56941 31016 ft 509 kts 113°
2026-04-26 10:36 6.82853 12.63529 31011 ft 508 kts 113°
2026-04-26 10:37 6.80172 12.70088 31008 ft 508 kts 113°
2026-04-26 10:37 6.77484 12.76665 31008 ft 508 kts 113°
2026-04-26 10:38 6.75247 12.82135 31011 ft 508 kts 113°
2026-04-26 10:38 6.72560 12.88702 31003 ft 508 kts 113°
2026-04-26 10:39 6.69868 12.95279 31007 ft 507 kts 113°
2026-04-26 10:39 6.67223 13.01739 31005 ft 507 kts 113°
2026-04-26 10:40 6.64534 13.08304 31001 ft 507 kts 113°
2026-04-26 10:40 6.61844 13.14866 30996 ft 507 kts 113°
2026-04-26 10:41 6.59170 13.21388 31002 ft 507 kts 113°
2026-04-26 10:41 6.56481 13.27943 30998 ft 507 kts 113°
2026-04-26 10:42 6.53792 13.34496 31002 ft 506 kts 113°
2026-04-26 10:42 6.51105 13.41042 30998 ft 506 kts 113°
2026-04-26 10:43 6.48415 13.47592 30996 ft 506 kts 113°
2026-04-26 10:43 6.45728 13.54133 30997 ft 506 kts 112°
2026-04-26 10:44 6.43036 13.60684 30996 ft 506 kts 112°
2026-04-26 10:44 6.40348 13.67222 31000 ft 506 kts 112°
2026-04-26 10:45 6.37665 13.73715 31001 ft 506 kts 113°
2026-04-26 10:45 6.34942 13.80256 31005 ft 506 kts 113°
2026-04-26 10:46 6.32226 13.86785 31004 ft 506 kts 112°
2026-04-26 10:46 6.29523 13.93288 31001 ft 506 kts 112°
2026-04-26 10:47 6.26807 13.99821 31006 ft 506 kts 112°
2026-04-26 10:47 6.24153 14.06236 31001 ft 506 kts 112°
2026-04-26 10:48 6.21466 14.12759 31001 ft 505 kts 112°
2026-04-26 10:48 6.18776 14.19283 30999 ft 505 kts 112°
2026-04-26 10:49 6.16087 14.25798 30999 ft 504 kts 112°
2026-04-26 10:49 6.13399 14.32308 31002 ft 505 kts 112°
2026-04-26 10:50 6.11159 14.37729 31001 ft 505 kts 112°
2026-04-26 10:50 6.08003 14.45365 31001 ft 505 kts 112°
2026-04-26 10:51 6.03971 14.55116 31005 ft 506 kts 112°
2026-04-26 10:52 6.01274 14.61637 31001 ft 506 kts 112°
2026-04-26 10:52 5.98579 14.68148 31005 ft 506 kts 112°
2026-04-26 10:53 5.95879 14.74673 31000 ft 506 kts 112°
2026-04-26 10:53 5.93175 14.81202 31002 ft 506 kts 112°
2026-04-26 10:54 5.89119 14.90981 30999 ft 505 kts 112°
2026-04-26 10:54 5.86407 14.97508 31011 ft 506 kts 112°
2026-04-26 10:55 5.83737 15.03934 31002 ft 507 kts 112°
2026-04-26 10:55 5.81041 15.10424 30998 ft 507 kts 112°
2026-04-26 10:56 5.78323 15.16966 30998 ft 507 kts 112°
2026-04-26 10:56 5.75605 15.23504 30995 ft 508 kts 112°
2026-04-26 10:57 5.72885 15.30043 30998 ft 507 kts 112°
2026-04-26 10:57 5.70168 15.36574 30997 ft 505 kts 112°
2026-04-26 10:58 5.67458 15.43085 30995 ft 504 kts 112°
2026-04-26 10:58 5.64775 15.49531 30999 ft 503 kts 112°
2026-04-26 10:59 5.62082 15.55999 30997 ft 502 kts 112°
2026-04-26 10:59 5.59386 15.62470 30998 ft 502 kts 112°
2026-04-26 11:00 5.56693 15.68931 31007 ft 501 kts 112°
2026-04-26 11:00 5.53999 15.75386 31005 ft 501 kts 112°
2026-04-26 11:01 5.51320 15.81804 30998 ft 501 kts 112°
2026-04-26 11:01 5.48628 15.88254 31000 ft 500 kts 112°
2026-04-26 11:02 5.45940 15.94692 31002 ft 500 kts 112°
2026-04-26 11:02 5.43296 16.01020 31007 ft 500 kts 112°
2026-04-26 11:03 5.40608 16.07456 31003 ft 500 kts 112°
2026-04-26 11:03 5.37918 16.13891 31004 ft 500 kts 112°
2026-04-26 11:04 5.35228 16.20325 31000 ft 500 kts 112°
2026-04-26 11:04 5.32534 16.26766 30997 ft 500 kts 112°
2026-04-26 11:05 5.29840 16.33206 30998 ft 500 kts 112°
2026-04-26 11:05 5.27160 16.39609 30994 ft 501 kts 112°
2026-04-26 11:06 5.24902 16.45003 30996 ft 501 kts 112°
2026-04-26 11:06 5.21764 16.52498 30994 ft 501 kts 112°
2026-04-26 11:07 5.19064 16.58942 30992 ft 501 kts 112°
2026-04-26 11:07 5.16360 16.65395 30991 ft 501 kts 112°
2026-04-26 11:08 5.13659 16.71839 30997 ft 501 kts 113°
2026-04-26 11:08 5.10959 16.78279 30995 ft 501 kts 113°
2026-04-26 11:09 5.08256 16.84722 30998 ft 501 kts 112°
2026-04-26 11:09 5.05569 16.91128 30997 ft 501 kts 113°
2026-04-26 11:10 5.02868 16.97564 30996 ft 500 kts 113°
2026-04-26 11:10 5.00210 17.03897 30999 ft 500 kts 113°
2026-04-26 11:11 4.97513 17.10324 31000 ft 500 kts 113°
2026-04-26 11:11 4.94812 17.16757 31000 ft 500 kts 113°
2026-04-26 11:12 4.92112 17.23189 31002 ft 500 kts 113°
2026-04-26 11:12 4.89428 17.29580 30998 ft 501 kts 113°
2026-04-26 11:13 4.86724 17.36017 31002 ft 501 kts 113°
2026-04-26 11:13 4.84019 17.42456 31001 ft 501 kts 113°
2026-04-26 11:14 4.81313 17.48893 30998 ft 501 kts 113°
2026-04-26 11:14 4.79051 17.54285 30995 ft 501 kts 113°
2026-04-26 11:15 4.75912 17.61774 30994 ft 501 kts 113°
2026-04-26 11:15 4.73211 17.68217 30997 ft 501 kts 113°
2026-04-26 11:16 4.70506 17.74666 30987 ft 501 kts 113°
2026-04-26 11:16 4.67801 17.81113 30991 ft 501 kts 113°
2026-04-26 11:17 4.65095 17.87561 30990 ft 501 kts 113°
2026-04-26 11:17 4.62389 17.94006 30990 ft 501 kts 113°
2026-04-26 11:18 4.59745 18.00304 30985 ft 501 kts 113°
2026-04-26 11:18 4.57038 18.06746 30987 ft 501 kts 113°
2026-04-26 11:19 4.54330 18.13191 30985 ft 501 kts 113°
2026-04-26 11:19 4.51622 18.19636 30988 ft 501 kts 113°
2026-04-26 11:20 4.49371 18.24989 30990 ft 501 kts 113°
2026-04-26 11:20 4.46199 18.32534 30993 ft 501 kts 113°
2026-04-26 11:21 4.43507 18.38934 30992 ft 501 kts 113°
2026-04-26 11:21 4.40798 18.45374 30994 ft 501 kts 113°
2026-04-26 11:22 4.38123 18.51828 30995 ft 502 kts 111°
2026-04-26 11:22 4.36218 18.58551 31000 ft 502 kts 104°
2026-04-26 11:23 4.34603 18.65362 30991 ft 502 kts 104°
2026-04-26 11:23 4.32963 18.72174 30996 ft 502 kts 104°
2026-04-26 11:24 4.31307 18.78929 30986 ft 503 kts 104°
2026-04-26 11:24 4.29904 18.84622 30986 ft 503 kts 104°
2026-04-26 11:25 4.27953 18.92537 30981 ft 502 kts 104°
2026-04-26 11:25 4.26279 18.99335 30982 ft 502 kts 104°
2026-04-26 11:26 4.24915 19.04874 30981 ft 502 kts 104°
2026-04-26 11:26 4.23241 19.11667 30980 ft 502 kts 104°
2026-04-26 11:27 4.21569 19.18452 30981 ft 502 kts 104°
2026-04-26 11:27 4.19893 19.25249 30980 ft 502 kts 104°
2026-04-26 11:28 4.18217 19.32042 30978 ft 502 kts 104°
2026-04-26 11:28 4.16540 19.38838 30977 ft 502 kts 104°
2026-04-26 11:29 4.14862 19.45636 30964 ft 503 kts 104°
2026-04-26 11:29 4.13194 19.52389 30966 ft 503 kts 104°
2026-04-26 11:30 4.11513 19.59197 30968 ft 503 kts 104°
2026-04-26 11:30 4.09829 19.66015 30967 ft 503 kts 104°
2026-04-26 11:31 4.08153 19.72819 30959 ft 503 kts 104°
2026-04-26 11:31 4.06477 19.79629 30960 ft 503 kts 104°
2026-04-26 11:32 4.04799 19.86445 30957 ft 504 kts 104°
2026-04-26 11:32 4.03118 19.93266 30955 ft 504 kts 104°
2026-04-26 11:33 4.01452 20.00025 30957 ft 504 kts 104°
2026-04-26 11:33 3.99798 20.06731 30952 ft 504 kts 104°
2026-04-26 11:34 3.98117 20.13548 30949 ft 504 kts 104°
2026-04-26 11:34 3.96433 20.20373 30945 ft 504 kts 104°
2026-04-26 11:35 3.94762 20.27143 30943 ft 504 kts 104°
2026-04-26 11:35 3.93080 20.33949 30945 ft 504 kts 104°
2026-04-26 11:36 3.91397 20.40764 30944 ft 503 kts 104°
2026-04-26 11:36 3.89713 20.47579 30940 ft 503 kts 104°
2026-04-26 11:37 3.88033 20.54385 30941 ft 503 kts 103°
2026-04-26 11:37 3.86418 20.61151 30937 ft 503 kts 103°
2026-04-26 11:38 3.84803 20.67972 30937 ft 503 kts 103°
2026-04-26 11:38 3.83159 20.74782 30935 ft 503 kts 104°
2026-04-26 11:39 3.81466 20.81581 30937 ft 503 kts 104°
2026-04-26 11:39 3.79770 20.88380 30932 ft 504 kts 104°
2026-04-26 11:40 3.78077 20.95192 30932 ft 504 kts 104°
2026-04-26 11:40 3.76414 21.01901 30933 ft 504 kts 104°
2026-04-26 11:42 3.69651 21.29150 30932 ft 504 kts 103°
2026-04-26 11:43 3.67958 21.35966 30930 ft 504 kts 103°
2026-04-26 11:43 3.66263 21.42783 30932 ft 504 kts 103°
2026-04-26 11:44 3.64571 21.49591 30931 ft 504 kts 103°
2026-04-26 11:44 3.62880 21.56393 30931 ft 504 kts 103°
2026-04-26 11:45 3.61198 21.63153 30933 ft 504 kts 103°
2026-04-26 11:45 3.59502 21.69970 30930 ft 504 kts 103°
2026-04-26 11:46 3.57808 21.76775 30930 ft 504 kts 104°
2026-04-26 11:46 3.56109 21.83591 30926 ft 504 kts 103°
2026-04-26 11:47 3.54413 21.90397 30926 ft 504 kts 103°
2026-04-26 11:47 3.52716 21.97204 30932 ft 504 kts 103°
2026-04-26 11:48 3.51045 22.03909 30927 ft 504 kts 103°
2026-04-26 11:48 3.49334 22.10712 30925 ft 504 kts 104°
2026-04-26 11:49 3.47577 22.17458 30922 ft 504 kts 104°
2026-04-26 11:49 3.45799 22.24247 30926 ft 504 kts 104°
2026-04-26 11:50 3.44029 22.31035 30924 ft 504 kts 104°
2026-04-26 11:50 3.42263 22.37827 30922 ft 504 kts 104°
2026-04-26 11:51 3.40498 22.44621 30920 ft 504 kts 104°
2026-04-26 11:51 3.38730 22.51416 30924 ft 504 kts 104°
2026-04-26 11:52 3.37262 22.57058 30920 ft 504 kts 104°
2026-04-26 11:52 3.35207 22.64953 30921 ft 503 kts 104°
2026-04-26 11:53 3.33442 22.71731 30919 ft 503 kts 104°
2026-04-26 11:54 3.30795 22.81894 30919 ft 503 kts 104°
2026-04-26 11:54 3.29029 22.88671 30918 ft 503 kts 104°
2026-04-26 11:55 3.27263 22.95447 30920 ft 503 kts 104°
2026-04-26 11:55 3.25534 23.02079 30915 ft 503 kts 104°
2026-04-26 11:56 3.23766 23.08861 30919 ft 503 kts 104°
2026-04-26 11:56 3.21998 23.15639 30919 ft 504 kts 103°
2026-04-26 11:57 3.20226 23.22430 30909 ft 504 kts 103°
2026-04-26 11:57 3.18520 23.29231 30914 ft 504 kts 102°
2026-04-26 11:58 3.16895 23.36047 30916 ft 504 kts 102°
2026-04-26 11:58 3.15268 23.42868 30916 ft 503 kts 102°
2026-04-26 11:59 3.13628 23.49677 30913 ft 503 kts 102°
2026-04-26 11:59 3.11994 23.56435 30911 ft 503 kts 102°
2026-04-26 12:00 3.10340 23.63271 30912 ft 502 kts 102°
2026-04-26 12:00 3.08708 23.70016 30916 ft 502 kts 102°
2026-04-26 12:01 3.07065 23.76807 30913 ft 502 kts 103°
2026-04-26 12:01 3.05424 23.83587 30912 ft 501 kts 103°
2026-04-26 12:02 3.03783 23.90366 30912 ft 501 kts 103°
2026-04-26 12:02 3.02141 23.97148 31064 ft 503 kts 103°
2026-04-26 12:02 3.01344 24.00437 31272 ft 501 kts 103°
2026-04-26 12:03 3.00523 24.03827 31508 ft 500 kts 103°
2026-04-26 12:03 2.99710 24.07183 31749 ft 498 kts 103°
2026-04-26 12:03 2.98895 24.10544 31962 ft 497 kts 103°
2026-04-26 12:03 2.98091 24.13863 32187 ft 496 kts 102°
2026-04-26 12:04 2.97269 24.17252 32383 ft 495 kts 102°
2026-04-26 12:04 2.96459 24.20597 32567 ft 495 kts 102°
2026-04-26 12:04 2.95646 24.23949 32772 ft 494 kts 102°
2026-04-26 12:05 2.94037 24.30584 32880 ft 495 kts 102°
2026-04-26 12:05 2.92415 24.37274 32907 ft 495 kts 102°
2026-04-26 12:06 2.90794 24.43957 32914 ft 494 kts 103°
2026-04-26 12:06 2.89172 24.50637 32910 ft 493 kts 103°
2026-04-26 12:07 2.87555 24.57299 32914 ft 492 kts 103°
2026-04-26 12:07 2.85939 24.63957 32915 ft 492 kts 103°
2026-04-26 12:08 2.84323 24.70611 32916 ft 492 kts 103°
2026-04-26 12:08 2.82708 24.77262 32918 ft 492 kts 103°
2026-04-26 12:09 2.80873 24.83812 32925 ft 492 kts 108°
2026-04-26 12:09 2.78537 24.90257 32923 ft 493 kts 109°
2026-04-26 12:10 2.76175 24.96714 32920 ft 493 kts 109°
2026-04-26 12:10 2.73877 25.03069 32921 ft 494 kts 109°
2026-04-26 12:11 2.71557 25.09531 32923 ft 494 kts 109°
2026-04-26 12:11 2.69251 25.15962 32921 ft 494 kts 109°
2026-04-26 12:12 2.67308 25.21381 32924 ft 494 kts 109°
2026-04-26 12:12 2.64982 25.27860 32923 ft 494 kts 109°
2026-04-26 12:13 2.62282 25.35379 32920 ft 494 kts 109°
2026-04-26 12:13 2.60349 25.40761 32924 ft 494 kts 109°
2026-04-26 12:14 2.58025 25.47230 32926 ft 494 kts 109°
2026-04-26 12:14 2.55700 25.53703 32924 ft 494 kts 109°
2026-04-26 12:15 2.53374 25.60175 32924 ft 494 kts 109°
2026-04-26 12:15 2.51048 25.66646 32929 ft 495 kts 109°
2026-04-26 12:16 2.48721 25.73121 32928 ft 495 kts 109°
2026-04-26 12:16 2.46390 25.79603 32928 ft 495 kts 109°
2026-04-26 12:17 2.44060 25.86084 32930 ft 495 kts 109°
2026-04-26 12:17 2.41728 25.92568 32926 ft 495 kts 109°
2026-04-26 12:18 2.39395 25.99053 32925 ft 495 kts 109°
2026-04-26 12:18 2.37098 26.05438 32927 ft 495 kts 109°
2026-04-26 12:19 2.34766 26.11919 32928 ft 495 kts 109°
2026-04-26 12:19 2.32431 26.18406 32922 ft 495 kts 109°
2026-04-26 12:20 2.30112 26.24849 32930 ft 495 kts 109°
2026-04-26 12:20 2.27778 26.31332 32926 ft 495 kts 108°
2026-04-26 12:21 2.25445 26.37813 32928 ft 495 kts 108°
2026-04-26 12:21 2.23112 26.44292 32923 ft 495 kts 108°
2026-04-26 12:22 2.20777 26.50776 32917 ft 496 kts 108°
2026-04-26 12:22 2.18441 26.57261 32917 ft 495 kts 108°
2026-04-26 12:23 2.16108 26.63738 32919 ft 495 kts 108°
2026-04-26 12:23 2.13771 26.70223 32918 ft 495 kts 108°
2026-04-26 12:24 2.11448 26.76672 32915 ft 495 kts 108°
2026-04-26 12:24 2.09113 26.83152 32910 ft 495 kts 108°
2026-04-26 12:25 2.05599 26.92864 32911 ft 495 kts 109°
2026-04-26 12:25 2.03250 26.99347 32912 ft 495 kts 109°
2026-04-26 12:26 2.00944 27.05714 32913 ft 496 kts 109°
2026-04-26 12:26 1.98598 27.12190 32911 ft 496 kts 109°
2026-04-26 12:27 1.96264 27.18635 32909 ft 496 kts 109°
2026-04-26 12:27 1.93915 27.25121 32915 ft 496 kts 109°
2026-04-26 12:28 1.91561 27.31620 32913 ft 497 kts 109°
2026-04-26 12:28 1.89207 27.38118 32913 ft 497 kts 109°
2026-04-26 12:29 1.86855 27.44620 32910 ft 497 kts 109°
2026-04-26 12:30 1.83327 27.54373 32913 ft 497 kts 109°
2026-04-26 12:30 1.80976 27.60872 32918 ft 497 kts 109°
2026-04-26 12:31 1.77452 27.70610 32911 ft 496 kts 109°
2026-04-26 12:31 1.75105 27.77096 32913 ft 496 kts 109°
2026-04-26 12:32 1.72759 27.83577 32912 ft 496 kts 109°
2026-04-26 12:33 1.69238 27.93306 32908 ft 496 kts 109°
2026-04-26 12:33 1.66909 27.99737 32915 ft 495 kts 109°
2026-04-26 12:34 1.64604 28.06103 32908 ft 495 kts 109°
2026-04-26 12:34 1.62261 28.12573 32910 ft 494 kts 109°
2026-04-26 12:35 1.59922 28.19032 32905 ft 494 kts 109°
2026-04-26 12:35 1.57584 28.25488 32904 ft 493 kts 109°
2026-04-26 12:36 1.55248 28.31938 32908 ft 493 kts 109°
2026-04-26 12:36 1.52925 28.38348 32904 ft 493 kts 109°
2026-04-26 12:37 1.50588 28.44800 32908 ft 493 kts 109°
2026-04-26 12:37 1.48249 28.51254 32903 ft 493 kts 109°
2026-04-26 12:38 1.45914 28.57696 32899 ft 493 kts 109°
2026-04-26 12:38 1.43581 28.64134 32898 ft 493 kts 109°
2026-04-26 12:39 1.41248 28.70573 32901 ft 493 kts 109°
2026-04-26 12:39 1.38925 28.76980 32902 ft 493 kts 109°
2026-04-26 12:40 1.36590 28.83422 32903 ft 493 kts 109°
2026-04-26 12:40 1.34256 28.89862 32899 ft 493 kts 109°
2026-04-26 12:41 1.31916 28.96316 32892 ft 494 kts 109°
2026-04-26 12:41 1.29609 29.02674 32903 ft 495 kts 109°
2026-04-26 12:42 1.27244 29.09159 32902 ft 497 kts 109°
2026-04-26 12:42 1.24872 29.15661 32902 ft 498 kts 109°
2026-04-26 12:43 1.22514 29.22130 32903 ft 499 kts 109°
2026-04-26 12:43 1.20139 29.28646 32898 ft 499 kts 109°
2026-04-26 12:44 1.17765 29.35161 32899 ft 498 kts 109°
2026-04-26 12:44 1.15392 29.41669 32901 ft 498 kts 109°
2026-04-26 12:45 1.13007 29.48166 32904 ft 498 kts 109°
2026-04-26 12:45 1.10609 29.54667 32904 ft 497 kts 109°
2026-04-26 12:46 1.08222 29.61149 32905 ft 497 kts 109°
2026-04-26 12:46 1.05868 29.67594 32905 ft 496 kts 109°
2026-04-26 12:47 1.03524 29.74078 32908 ft 496 kts 109°
2026-04-26 12:47 1.01177 29.80570 32908 ft 496 kts 109°
2026-04-26 12:48 0.98830 29.87052 32910 ft 496 kts 109°
2026-04-26 12:48 0.96483 29.93531 32914 ft 496 kts 109°
2026-04-26 12:49 0.94134 30.00013 32908 ft 495 kts 109°
2026-04-26 12:49 0.91844 30.06332 32931 ft 495 kts 109°
2026-04-26 12:50 0.89499 30.12802 32931 ft 495 kts 109°
2026-04-26 12:50 0.87154 30.19274 32937 ft 496 kts 109°
2026-04-26 12:51 0.84805 30.25758 32934 ft 497 kts 109°
2026-04-26 12:51 0.82448 30.32260 32932 ft 497 kts 109°
2026-04-26 12:52 0.80085 30.38765 32926 ft 498 kts 109°
2026-04-26 12:52 0.77728 30.45236 32949 ft 498 kts 109°
2026-04-26 12:53 0.75359 30.51745 32948 ft 498 kts 109°
2026-04-26 12:53 0.72443 30.58037 32938 ft 501 kts 120°
2026-04-26 12:54 0.68820 30.63968 32952 ft 500 kts 120°
2026-04-26 12:54 0.68354 30.64729 32951 ft 500 kts 120°
2026-04-26 12:55 0.65691 30.69091 32948 ft 500 kts 120°
2026-04-26 12:55 0.62101 30.75036 32954 ft 499 kts 120°
2026-04-26 12:56 0.58558 30.80945 32950 ft 499 kts 120°
2026-04-26 12:56 0.54994 30.86896 32952 ft 499 kts 120°
2026-04-26 12:57 0.51430 30.92843 32959 ft 499 kts 120°
2026-04-26 12:57 0.47867 30.98787 32960 ft 499 kts 120°
2026-04-26 12:58 0.43171 31.06617 32954 ft 499 kts 120°
2026-04-26 12:58 0.39003 31.13569 32963 ft 499 kts 120°
2026-04-26 12:59 0.35435 31.19518 32958 ft 499 kts 120°
2026-04-26 12:59 0.31863 31.25475 32961 ft 499 kts 120°
2026-04-26 13:00 0.28315 31.31392 32959 ft 500 kts 119°
2026-04-26 13:00 0.24741 31.37352 32970 ft 500 kts 119°
2026-04-26 13:01 0.21744 31.42349 32965 ft 500 kts 120°
2026-04-26 13:01 0.18187 31.48280 32963 ft 501 kts 119°
2026-04-26 13:02 0.14603 31.54257 32958 ft 501 kts 120°
2026-04-26 13:02 0.11017 31.60237 32966 ft 501 kts 120°
2026-04-26 13:03 0.07435 31.66208 32968 ft 501 kts 120°
2026-04-26 13:03 0.03848 31.72189 32962 ft 501 kts 120°
2026-04-26 13:04 0.00262 31.78170 32964 ft 501 kts 120°
2026-04-26 13:04 -0.03323 31.84146 32968 ft 502 kts 120°
2026-04-26 13:05 -0.06915 31.90136 32969 ft 503 kts 120°
2026-04-26 13:05 -0.10513 31.96137 32968 ft 503 kts 120°
2026-04-26 13:06 -0.14025 32.01992 32968 ft 504 kts 120°
2026-04-26 13:06 -0.17624 32.07994 32971 ft 504 kts 120°
2026-04-26 13:07 -0.21204 32.13963 32971 ft 504 kts 120°
2026-04-26 13:07 -0.24810 32.19975 32971 ft 504 kts 120°
2026-04-26 13:08 -0.28415 32.25987 32972 ft 504 kts 120°
2026-04-26 13:08 -0.32016 32.31992 32976 ft 503 kts 120°
2026-04-26 13:09 -0.35613 32.37990 32976 ft 503 kts 119°
2026-04-26 13:09 -0.39212 32.43992 32972 ft 503 kts 119°
2026-04-26 13:10 -0.42849 32.50058 32973 ft 502 kts 119°
2026-04-26 13:10 -0.46395 32.55970 32970 ft 502 kts 119°
2026-04-26 13:11 -0.49962 32.61920 32969 ft 502 kts 119°
2026-04-26 13:11 -0.53552 32.67907 32968 ft 502 kts 119°
2026-04-26 13:12 -0.57144 32.73897 32968 ft 502 kts 119°
2026-04-26 13:12 -0.60735 32.79888 32968 ft 503 kts 119°
2026-04-26 13:13 -0.64330 32.85883 32961 ft 503 kts 119°
2026-04-26 13:13 -0.67928 32.91885 32956 ft 504 kts 119°
2026-04-26 13:14 -0.71534 32.97901 32961 ft 504 kts 119°
2026-04-26 13:14 -0.75060 33.03783 32960 ft 505 kts 119°
2026-04-26 13:15 -0.78672 33.09808 32957 ft 505 kts 119°
2026-04-26 13:15 -0.82286 33.15838 32957 ft 505 kts 119°
2026-04-26 13:16 -0.85900 33.21867 32957 ft 505 kts 119°
2026-04-26 13:16 -0.89512 33.27894 32953 ft 505 kts 119°
2026-04-26 13:17 -0.94936 33.36946 32951 ft 505 kts 119°
2026-04-26 13:18 -1.00565 33.45782 32954 ft 506 kts 127°
2026-04-26 13:19 -1.07912 33.53376 32958 ft 508 kts 135°
2026-04-26 13:19 -1.13032 33.58246 32949 ft 508 kts 134°
2026-04-26 13:20 -1.18121 33.63156 32957 ft 508 kts 134°
2026-04-26 13:20 -1.23197 33.68084 32960 ft 509 kts 134°
2026-04-26 13:21 -1.28279 33.73015 32959 ft 509 kts 134°
2026-04-26 13:21 -1.33360 33.77940 32960 ft 509 kts 134°
2026-04-26 13:22 -1.38412 33.82841 32953 ft 509 kts 134°
2026-04-26 13:22 -1.40948 33.85303 33069 ft 509 kts 134°
2026-04-26 13:22 -1.43493 33.87772 33071 ft 509 kts 134°
2026-04-26 13:23 -1.48587 33.92680 33059 ft 509 kts 135°
2026-04-26 13:23 -1.53693 33.97589 33045 ft 510 kts 134°
2026-04-26 13:24 -1.58701 34.02413 33013 ft 509 kts 134°
2026-04-26 13:24 -1.63794 34.07337 32985 ft 509 kts 134°
2026-04-26 13:25 -1.68890 34.12280 32958 ft 512 kts 134°
2026-04-26 13:25 -1.73997 34.17233 32963 ft 511 kts 134°
2026-04-26 13:26 -1.79095 34.22175 32976 ft 510 kts 134°
2026-04-26 13:26 -1.84181 34.27099 32988 ft 509 kts 134°
2026-04-26 13:27 -1.89290 34.32021 32973 ft 510 kts 134°
2026-04-26 13:27 -1.94402 34.36947 32963 ft 509 kts 134°
2026-04-26 13:28 -1.99493 34.41858 32970 ft 508 kts 134°
2026-04-26 13:28 -2.04532 34.46724 32980 ft 507 kts 134°
2026-04-26 13:29 -2.09597 34.51635 32981 ft 508 kts 134°
2026-04-26 13:29 -2.14676 34.56564 32991 ft 509 kts 134°
2026-04-26 13:30 -2.19768 34.61504 32996 ft 510 kts 134°
2026-04-26 13:30 -2.24873 34.66456 32999 ft 512 kts 134°
2026-04-26 13:31 -2.29996 34.71426 33017 ft 513 kts 134°
2026-04-26 13:31 -2.35138 34.76415 33023 ft 517 kts 134°
2026-04-26 13:32 -2.40304 34.81426 33037 ft 517 kts 134°
2026-04-26 13:32 -2.45460 34.86428 33025 ft 514 kts 134°
2026-04-26 13:33 -2.50545 34.91363 33038 ft 512 kts 134°
2026-04-26 13:33 -2.55652 34.96320 33045 ft 511 kts 134°
2026-04-26 13:34 -2.60657 35.01180 33057 ft 511 kts 134°
2026-04-26 13:34 -2.65774 35.06147 33066 ft 513 kts 134°
2026-04-26 13:35 -2.70898 35.11122 33069 ft 514 kts 134°
2026-04-26 13:35 -2.76041 35.16117 33076 ft 516 kts 134°
2026-04-26 13:36 -2.81197 35.21124 33078 ft 516 kts 134°
2026-04-26 13:36 -2.86355 35.26134 33081 ft 516 kts 134°
2026-04-26 13:37 -2.91465 35.31098 33095 ft 515 kts 134°
2026-04-26 13:37 -2.96604 35.36093 33104 ft 514 kts 134°
2026-04-26 13:38 -3.01728 35.41073 33110 ft 513 kts 134°
2026-04-26 13:38 -3.06850 35.46043 33127 ft 513 kts 134°
2026-04-26 13:39 -3.11975 35.51002 33117 ft 513 kts 134°
2026-04-26 13:39 -3.17104 35.55967 33131 ft 512 kts 134°
2026-04-26 13:40 -3.22182 35.60887 33137 ft 512 kts 134°
2026-04-26 13:40 -3.27297 35.65845 33134 ft 512 kts 134°
2026-04-26 13:41 -3.32414 35.70804 33133 ft 512 kts 134°
2026-04-26 13:41 -3.37531 35.75764 33128 ft 512 kts 134°
2026-04-26 13:42 -3.42647 35.80725 33130 ft 511 kts 134°
2026-04-26 13:42 -3.47752 35.85676 33109 ft 510 kts 134°
2026-04-26 13:43 -3.52846 35.90617 33112 ft 509 kts 134°
2026-04-26 13:43 -3.57929 35.95555 33113 ft 509 kts 134°
2026-04-26 13:44 -3.62898 36.00413 33113 ft 508 kts 134°
2026-04-26 13:44 -3.67961 36.05361 33116 ft 508 kts 134°
2026-04-26 13:45 -3.73170 36.10173 33118 ft 510 kts 137°
2026-04-26 13:45 -3.78462 36.14848 33117 ft 511 kts 137°
2026-04-26 13:46 -3.83768 36.19588 33118 ft 511 kts 136°
2026-04-26 13:46 -3.88172 36.23559 33130 ft 512 kts 136°
2026-04-26 13:47 -3.93466 36.28336 33171 ft 511 kts 136°
2026-04-26 13:47 -3.98681 36.33173 33162 ft 509 kts 134°
2026-04-26 13:48 -4.03674 36.38168 33165 ft 508 kts 133°
2026-04-26 13:48 -4.08659 36.43180 33167 ft 508 kts 133°
2026-04-26 13:49 -4.13675 36.48164 33162 ft 508 kts 133°
2026-04-26 13:49 -4.18709 36.53138 33161 ft 508 kts 133°
2026-04-26 13:50 -4.23737 36.58105 33141 ft 507 kts 133°
2026-04-26 13:50 -4.28747 36.63061 33130 ft 506 kts 133°
2026-04-26 13:51 -4.33758 36.68020 33126 ft 506 kts 133°
2026-04-26 13:51 -4.38745 36.72955 33127 ft 507 kts 133°
2026-04-26 13:52 -4.43769 36.77929 33119 ft 507 kts 133°
2026-04-26 13:52 -4.48786 36.82897 33115 ft 506 kts 133°
2026-04-26 13:53 -4.53810 36.87861 33106 ft 506 kts 133°
2026-04-26 13:53 -4.58829 36.92799 33098 ft 506 kts 134°
2026-04-26 13:54 -4.63852 36.97741 33097 ft 507 kts 134°
2026-04-26 13:54 -4.68765 37.02581 33108 ft 508 kts 133°
2026-04-26 13:55 -4.75511 37.09232 33080 ft 508 kts 133°
2026-04-26 13:56 -4.83890 37.17494 33082 ft 508 kts 133°
2026-04-26 13:56 -4.88928 37.22463 33078 ft 508 kts 134°
2026-04-26 13:57 -4.93967 37.27434 33082 ft 509 kts 134°
2026-04-26 13:57 -4.99016 37.32417 33076 ft 510 kts 134°
2026-04-26 13:58 -5.04041 37.37376 33073 ft 511 kts 134°
2026-04-26 13:58 -5.09121 37.42392 33079 ft 512 kts 134°
2026-04-26 13:59 -5.14201 37.47407 33076 ft 512 kts 134°
2026-04-26 13:59 -5.19284 37.52428 33059 ft 513 kts 134°
2026-04-26 14:00 -5.29451 37.62473 33058 ft 515 kts 134°
2026-04-26 14:01 -5.34556 37.67519 33055 ft 515 kts 134°
2026-04-26 14:01 -5.39659 37.72565 33040 ft 515 kts 134°
2026-04-26 14:02 -5.44765 37.77615 33035 ft 515 kts 134°
2026-04-26 14:02 -5.49869 37.82664 33028 ft 515 kts 134°
2026-04-26 14:03 -5.54969 37.87710 33019 ft 515 kts 134°
2026-04-26 14:03 -5.60032 37.92721 33021 ft 514 kts 134°
2026-04-26 14:04 -5.65140 37.97779 33013 ft 514 kts 134°
2026-04-26 14:04 -5.70148 38.02738 33010 ft 514 kts 134°
2026-04-26 14:05 -5.75267 38.07769 33008 ft 515 kts 134°
2026-04-26 14:05 -5.80393 38.12795 32993 ft 515 kts 134°
2026-04-26 14:06 -5.85525 38.17834 32994 ft 516 kts 134°
2026-04-26 14:06 -5.90618 38.22840 32991 ft 515 kts 135°
2026-04-26 14:07 -5.95732 38.27869 32982 ft 514 kts 134°
2026-04-26 14:07 -6.00829 38.32883 32975 ft 513 kts 135°
2026-04-26 14:08 -6.05918 38.37890 32983 ft 512 kts 134°
2026-04-26 14:08 -6.11017 38.42909 32970 ft 513 kts 134°
2026-04-26 14:09 -6.16110 38.47923 32973 ft 513 kts 134°
2026-04-26 14:09 -6.21213 38.52935 32964 ft 513 kts 134°
2026-04-26 14:10 -6.26333 38.57947 32970 ft 513 kts 135°
2026-04-26 14:10 -6.31411 38.62920 32973 ft 513 kts 135°
2026-04-26 14:11 -6.39069 38.70431 32966 ft 512 kts 134°
2026-04-26 14:11 -6.44164 38.75431 32964 ft 511 kts 135°
2026-04-26 14:12 -6.49245 38.80418 32963 ft 510 kts 134°
2026-04-26 14:12 -6.54319 38.85401 32962 ft 510 kts 135°
2026-04-26 14:13 -6.61925 38.92871 32968 ft 509 kts 135°
2026-04-26 14:14 -6.66989 38.97846 32963 ft 509 kts 135°
2026-04-26 14:14 -6.71949 39.02721 32964 ft 508 kts 135°
2026-04-26 14:15 -6.76971 39.07660 32967 ft 508 kts 135°
2026-04-26 14:15 -6.82028 39.12634 32960 ft 508 kts 135°
2026-04-26 14:16 -6.87089 39.17614 32970 ft 508 kts 135°
2026-04-26 14:16 -6.92363 39.22364 32971 ft 508 kts 140°
2026-04-26 14:17 -6.97805 39.26845 32968 ft 508 kts 140°
2026-04-26 14:17 -7.03276 39.31342 32955 ft 508 kts 140°
2026-04-26 14:18 -7.08733 39.35865 32952 ft 509 kts 140°
2026-04-26 14:18 -7.14184 39.40404 32960 ft 508 kts 139°
2026-04-26 14:19 -7.19641 39.44951 32949 ft 509 kts 139°
2026-04-26 14:19 -7.25092 39.49493 32952 ft 508 kts 140°
2026-04-26 14:20 -7.30546 39.54037 32950 ft 508 kts 140°
2026-04-26 14:20 -7.35964 39.58553 32948 ft 509 kts 139°
2026-04-26 14:21 -7.41421 39.63103 32952 ft 509 kts 139°
2026-04-26 14:21 -7.46882 39.67657 32944 ft 509 kts 140°
2026-04-26 14:22 -7.52331 39.72203 32948 ft 509 kts 139°
2026-04-26 14:22 -7.57783 39.76753 32945 ft 508 kts 139°
2026-04-26 14:23 -7.63234 39.81303 32936 ft 509 kts 139°
2026-04-26 14:23 -7.68694 39.85863 32944 ft 510 kts 139°
2026-04-26 14:24 -7.74162 39.90431 32941 ft 510 kts 139°
2026-04-26 14:24 -7.79598 39.94975 32939 ft 511 kts 139°
2026-04-26 14:25 -7.85078 39.99556 32945 ft 511 kts 139°
2026-04-26 14:25 -7.90460 40.04058 32933 ft 512 kts 139°
2026-04-26 14:26 -7.95955 40.08654 32943 ft 513 kts 139°
2026-04-26 14:26 -8.01442 40.13247 32941 ft 514 kts 139°
2026-04-26 14:27 -8.06948 40.17857 32940 ft 514 kts 139°
2026-04-26 14:27 -8.12419 40.22441 32937 ft 514 kts 139°
2026-04-26 14:28 -8.17927 40.27054 32941 ft 514 kts 139°
2026-04-26 14:28 -8.23431 40.31661 32940 ft 514 kts 139°
2026-04-26 14:29 -8.28936 40.36269 32939 ft 514 kts 139°
2026-04-26 14:29 -8.34440 40.40879 32940 ft 513 kts 139°
2026-04-26 14:30 -8.39943 40.45490 32940 ft 513 kts 139°
2026-04-26 14:30 -8.45414 40.50076 32941 ft 514 kts 139°
2026-04-26 14:31 -8.50923 40.54697 32947 ft 516 kts 139°
2026-04-26 14:31 -8.56463 40.59345 32944 ft 517 kts 139°
2026-04-26 14:32 -8.62007 40.63997 32940 ft 519 kts 139°
2026-04-26 14:32 -8.67567 40.68666 32937 ft 520 kts 139°
2026-04-26 14:33 -8.73139 40.73346 32946 ft 521 kts 139°
2026-04-26 14:33 -8.78725 40.78039 32944 ft 522 kts 139°
2026-04-26 14:34 -8.84270 40.82701 32940 ft 521 kts 140°
2026-04-26 14:34 -8.89841 40.87387 32938 ft 519 kts 140°
2026-04-26 14:35 -8.95390 40.92055 32939 ft 518 kts 140°
2026-04-26 14:35 -8.99991 40.95928 32941 ft 517 kts 140°
2026-04-26 14:36 -9.05428 41.00506 32941 ft 517 kts 140°
2026-04-26 14:36 -9.10958 41.05164 32941 ft 517 kts 140°
2026-04-26 14:37 -9.16484 41.09821 32940 ft 518 kts 140°
2026-04-26 14:37 -9.22025 41.14493 32947 ft 519 kts 140°
2026-04-26 14:38 -9.27574 41.19172 32941 ft 520 kts 140°
2026-04-26 14:38 -9.33133 41.23864 32941 ft 520 kts 140°
2026-04-26 14:39 -9.38662 41.28533 32940 ft 521 kts 140°
2026-04-26 14:39 -9.44234 41.33237 32941 ft 521 kts 140°
2026-04-26 14:40 -9.49814 41.37944 32945 ft 522 kts 140°
2026-04-26 14:40 -9.55395 41.42655 32943 ft 522 kts 140°
2026-04-26 14:41 -9.60981 41.47375 32943 ft 523 kts 140°
2026-04-26 14:41 -9.66565 41.52097 32940 ft 523 kts 140°
2026-04-26 14:42 -9.72151 41.56820 32944 ft 523 kts 140°
2026-04-26 14:42 -9.77750 41.61555 32944 ft 524 kts 140°
2026-04-26 14:43 -9.83317 41.66267 32942 ft 524 kts 140°
2026-04-26 14:43 -9.88955 41.71042 32943 ft 524 kts 140°
2026-04-26 14:44 -9.94520 41.75757 32943 ft 525 kts 140°
2026-04-26 14:44 -10.00114 41.80500 32944 ft 525 kts 140°
2026-04-26 14:45 -10.05716 41.85250 32942 ft 525 kts 140°
2026-04-26 14:45 -10.11316 41.90001 32943 ft 524 kts 140°
2026-04-26 14:46 -10.16927 41.94764 32941 ft 525 kts 140°
2026-04-26 14:46 -10.22527 41.99519 32945 ft 525 kts 140°
2026-04-26 14:47 -10.28040 42.04203 32943 ft 525 kts 140°
2026-04-26 14:47 -10.33650 42.08971 32943 ft 525 kts 140°
2026-04-26 14:48 -10.39256 42.13739 32939 ft 526 kts 140°
2026-04-26 14:48 -10.44866 42.18513 32942 ft 526 kts 140°
2026-04-26 14:49 -10.50444 42.23261 32941 ft 526 kts 140°
2026-04-26 14:49 -10.56057 42.28042 32943 ft 526 kts 140°
2026-04-26 14:50 -10.61663 42.32819 32944 ft 526 kts 140°
2026-04-26 14:50 -10.67279 42.37608 32940 ft 527 kts 140°
2026-04-26 14:51 -10.72900 42.42405 32947 ft 527 kts 140°
2026-04-26 14:51 -10.78152 42.47611 32943 ft 527 kts 133°
2026-04-26 14:52 -10.83133 42.53098 32935 ft 527 kts 133°
2026-04-26 14:52 -10.88110 42.58580 32936 ft 528 kts 133°
2026-04-26 14:53 -10.93102 42.64023 32943 ft 528 kts 133°
2026-04-26 14:53 -10.98131 42.69486 32940 ft 529 kts 133°
2026-04-26 14:54 -11.03157 42.74948 32940 ft 529 kts 133°
2026-04-26 14:54 -11.08187 42.80422 32936 ft 529 kts 133°
2026-04-26 14:55 -11.13188 42.85869 32937 ft 530 kts 133°
2026-04-26 14:55 -11.18224 42.91357 32942 ft 530 kts 133°
2026-04-26 14:56 -11.23262 42.96850 32937 ft 530 kts 133°
2026-04-26 14:56 -11.28214 43.02253 32943 ft 531 kts 133°
2026-04-26 14:57 -11.33254 43.07754 32939 ft 530 kts 133°
2026-04-26 14:57 -11.38289 43.13253 32942 ft 531 kts 133°
2026-04-26 14:57 -11.40816 43.16014 33072 ft 532 kts 133°
2026-04-26 14:58 -11.43339 43.18772 33313 ft 531 kts 133°
2026-04-26 14:58 -11.45856 43.21525 33591 ft 530 kts 133°
2026-04-26 14:58 -11.48367 43.24271 33861 ft 529 kts 133°
2026-04-26 14:58 -11.50845 43.27038 34104 ft 527 kts 130°
2026-04-26 14:59 -11.53118 43.29978 34282 ft 527 kts 124°
2026-04-26 14:59 -11.55174 43.33087 34398 ft 529 kts 123°
2026-04-26 14:59 -11.57194 43.36229 34555 ft 530 kts 123°
2026-04-26 14:59 -11.58527 43.38318 34674 ft 529 kts 123°
2026-04-26 15:00 -11.61191 43.42485 34844 ft 529 kts 123°
2026-04-26 15:00 -11.65247 43.48765 34927 ft 530 kts 123°
2026-04-26 15:01 -11.69328 43.55031 34929 ft 529 kts 123°
2026-04-26 15:01 -11.73398 43.61268 34930 ft 528 kts 123°
2026-04-26 15:02 -11.77466 43.67512 34929 ft 527 kts 123°
2026-04-26 15:02 -11.81522 43.73745 34930 ft 527 kts 123°
2026-04-26 15:03 -11.85550 43.79941 34927 ft 528 kts 123°
2026-04-26 15:03 -11.89611 43.86192 34932 ft 528 kts 123°
2026-04-26 15:04 -11.93671 43.92445 34940 ft 528 kts 123°
2026-04-26 15:04 -11.97734 43.98706 34934 ft 529 kts 123°
2026-04-26 15:05 -12.01724 44.04858 34937 ft 529 kts 123°
2026-04-26 15:05 -12.05794 44.11138 34934 ft 529 kts 123°
2026-04-26 15:06 -12.09854 44.17408 34935 ft 529 kts 123°
2026-04-26 15:06 -12.13914 44.23680 34936 ft 529 kts 123°
2026-04-26 15:07 -12.20000 44.33090 34935 ft 529 kts 123°
2026-04-26 15:07 -12.24031 44.39328 34929 ft 529 kts 123°
2026-04-26 15:08 -12.28082 44.45602 34938 ft 529 kts 123°
2026-04-26 15:08 -12.32133 44.51879 34927 ft 528 kts 123°
2026-04-26 15:09 -12.36181 44.58156 34927 ft 528 kts 123°
2026-04-26 15:09 -12.40232 44.64441 34931 ft 528 kts 123°
2026-04-26 15:10 -12.43600 44.69670 34927 ft 529 kts 123°
2026-04-26 15:10 -12.48305 44.76980 34928 ft 529 kts 123°
2026-04-26 15:11 -12.52352 44.83273 34927 ft 529 kts 123°
2026-04-26 15:11 -12.56404 44.89577 34926 ft 530 kts 123°
2026-04-26 15:12 -12.60458 44.95890 34928 ft 530 kts 123°
2026-04-26 15:12 -12.64435 45.02085 34927 ft 530 kts 123°
2026-04-26 15:13 -12.68486 45.08401 34911 ft 531 kts 123°
2026-04-26 15:13 -12.72539 45.14725 34911 ft 531 kts 123°
2026-04-26 15:14 -12.76563 45.21009 34918 ft 531 kts 123°
2026-04-26 15:14 -12.80629 45.27327 34912 ft 530 kts 125°
2026-04-26 15:15 -12.85252 45.33198 34917 ft 529 kts 132°
2026-04-26 15:15 -12.90118 45.38860 34914 ft 529 kts 132°
2026-04-26 15:16 -12.94980 45.44546 34918 ft 530 kts 131°
2026-04-26 15:16 -12.99805 45.50257 34920 ft 530 kts 131°
2026-04-26 15:17 -13.03805 45.55013 34916 ft 530 kts 131°
2026-04-26 15:17 -13.09436 45.61713 34919 ft 530 kts 131°
2026-04-26 15:18 -13.14225 45.67408 34919 ft 531 kts 131°
2026-04-26 15:18 -13.19049 45.73149 34917 ft 531 kts 131°
2026-04-26 15:19 -13.23876 45.78896 34919 ft 531 kts 131°
2026-04-26 15:19 -13.28699 45.84642 34919 ft 531 kts 131°
2026-04-26 15:20 -13.33519 45.90390 34912 ft 531 kts 131°
2026-04-26 15:20 -13.38339 45.96141 34913 ft 531 kts 131°
2026-04-26 15:21 -13.43050 46.01766 34920 ft 531 kts 131°
2026-04-26 15:21 -13.47900 46.07560 34920 ft 531 kts 131°
2026-04-26 15:22 -13.52684 46.13280 34911 ft 531 kts 131°
2026-04-26 15:22 -13.56716 46.18105 34918 ft 531 kts 131°
2026-04-26 15:23 -13.61536 46.23872 34913 ft 531 kts 131°
2026-04-26 15:23 -13.66324 46.29600 34914 ft 531 kts 131°
2026-04-26 15:24 -13.71142 46.35367 34912 ft 531 kts 131°
2026-04-26 15:24 -13.75965 46.41147 34912 ft 531 kts 131°
2026-04-26 15:25 -13.80779 46.46920 34909 ft 531 kts 131°
2026-04-26 15:25 -13.85592 46.52696 34912 ft 532 kts 131°
2026-04-26 15:26 -13.90405 46.58477 34907 ft 532 kts 132°
2026-04-26 15:26 -13.95224 46.64268 34908 ft 532 kts 132°
2026-04-26 15:27 -14.00004 46.70017 34901 ft 533 kts 132°
2026-04-26 15:27 -14.04830 46.75825 34907 ft 533 kts 132°
2026-04-26 15:28 -14.09657 46.81638 34902 ft 533 kts 132°
2026-04-26 15:28 -14.14483 46.87454 34903 ft 533 kts 132°
2026-04-26 15:29 -14.19302 46.93267 34904 ft 533 kts 132°
2026-04-26 15:30 -14.28849 47.04793 34896 ft 533 kts 132°
2026-04-26 15:30 -14.33669 47.10619 34904 ft 534 kts 132°
2026-04-26 15:31 -14.40898 47.19365 34897 ft 534 kts 132°
2026-04-26 15:32 -14.47315 47.27135 34895 ft 534 kts 132°
2026-04-26 15:32 -14.52910 47.33917 34894 ft 534 kts 132°
2026-04-26 15:33 -14.57725 47.39758 34893 ft 534 kts 132°
2026-04-26 15:33 -14.62541 47.45604 34894 ft 534 kts 132°
2026-04-26 15:34 -14.67354 47.51452 34890 ft 535 kts 132°
2026-04-26 15:34 -14.72171 47.57308 34892 ft 535 kts 132°
2026-04-26 15:35 -14.76991 47.63172 34891 ft 535 kts 132°
2026-04-26 15:35 -14.81777 47.69000 34888 ft 536 kts 132°
2026-04-26 15:36 -14.86600 47.74877 34888 ft 536 kts 132°
2026-04-26 15:36 -14.91418 47.80751 34890 ft 536 kts 132°
2026-04-26 15:37 -14.96239 47.86636 34885 ft 536 kts 132°
2026-04-26 15:37 -15.01054 47.92515 34887 ft 536 kts 132°
2026-04-26 15:38 -15.05872 47.98404 34890 ft 536 kts 132°
2026-04-26 15:38 -15.10606 48.04195 34888 ft 536 kts 132°
2026-04-26 15:39 -15.15424 48.10093 34890 ft 536 kts 132°
2026-04-26 15:39 -15.19429 48.14998 34894 ft 536 kts 132°
2026-04-26 15:40 -15.25029 48.21863 34896 ft 536 kts 132°
2026-04-26 15:40 -15.29839 48.27765 34907 ft 536 kts 132°
2026-04-26 15:41 -15.34657 48.33682 34917 ft 536 kts 133°
2026-04-26 15:41 -15.39466 48.39591 34926 ft 536 kts 133°
2026-04-26 15:42 -15.44273 48.45502 34928 ft 536 kts 133°
2026-04-26 15:42 -15.49084 48.51424 34936 ft 536 kts 133°
2026-04-26 15:43 -15.53884 48.57336 34948 ft 536 kts 133°
2026-04-26 15:44 -15.61056 48.66181 34963 ft 536 kts 133°
2026-04-26 15:44 -15.68257 48.75069 34979 ft 536 kts 133°
2026-04-26 15:45 -15.75449 48.83959 34984 ft 535 kts 132°
2026-04-26 15:46 -15.82632 48.92848 35001 ft 536 kts 132°
2026-04-26 15:46 -15.86618 48.97785 34999 ft 536 kts 132°
2026-04-26 15:47 -15.94483 49.07539 35004 ft 535 kts 132°
2026-04-26 15:48 -15.99266 49.13478 35008 ft 536 kts 132°
2026-04-26 15:48 -16.04040 49.19408 35016 ft 535 kts 132°
2026-04-26 15:49 -16.08815 49.25343 35023 ft 535 kts 132°
2026-04-26 15:49 -16.13581 49.31275 35015 ft 535 kts 132°
2026-04-26 15:50 -16.18350 49.37215 35015 ft 534 kts 132°
2026-04-26 15:50 -16.23091 49.43126 35000 ft 534 kts 132°
2026-04-26 15:51 -16.27847 49.49062 35017 ft 533 kts 132°
2026-04-26 15:51 -16.32599 49.54996 35002 ft 534 kts 132°
2026-04-26 15:52 -16.37352 49.60937 35005 ft 534 kts 132°
2026-04-26 15:52 -16.42110 49.66889 34993 ft 534 kts 132°
2026-04-26 15:53 -16.46864 49.72841 34983 ft 534 kts 132°
2026-04-26 15:53 -16.51579 49.78751 34996 ft 534 kts 132°
2026-04-26 15:54 -16.56325 49.84703 34998 ft 533 kts 132°
2026-04-26 15:54 -16.61069 49.90659 34968 ft 534 kts 132°
2026-04-26 15:55 -16.65811 49.96617 34968 ft 533 kts 132°
2026-04-26 15:55 -16.70469 50.02472 34980 ft 533 kts 132°
2026-04-26 15:56 -16.75204 50.08421 34981 ft 533 kts 132°
2026-04-26 15:56 -16.79942 50.14379 34966 ft 533 kts 132°
2026-04-26 15:57 -16.84676 50.20340 34958 ft 533 kts 132°
2026-04-26 15:57 -16.89404 50.26299 34961 ft 533 kts 132°
2026-04-26 15:58 -16.94105 50.32230 34977 ft 533 kts 132°
2026-04-26 15:58 -16.98826 50.38191 34969 ft 533 kts 132°
2026-04-26 15:59 -17.03552 50.44162 34959 ft 533 kts 132°
2026-04-26 15:59 -17.08271 50.50131 34961 ft 533 kts 132°
2026-04-26 16:00 -17.12992 50.56108 34971 ft 533 kts 132°
2026-04-26 16:00 -17.17686 50.62055 34979 ft 533 kts 132°
2026-04-26 16:01 -17.22399 50.68032 34965 ft 533 kts 132°
2026-04-26 16:01 -17.27114 50.74017 34960 ft 532 kts 132°
2026-04-26 16:02 -17.31821 50.79997 34962 ft 532 kts 132°
2026-04-26 16:02 -17.36520 50.85972 34966 ft 531 kts 132°
2026-04-26 16:03 -17.41221 50.91957 34968 ft 531 kts 132°
2026-04-26 16:03 -17.45884 50.97896 34964 ft 531 kts 132°
2026-04-26 16:04 -17.50496 51.03779 34962 ft 531 kts 132°
2026-04-26 16:04 -17.55181 51.09765 34962 ft 531 kts 132°
2026-04-26 16:05 -17.59866 51.15757 34963 ft 531 kts 132°
2026-04-26 16:05 -17.64551 51.21755 34960 ft 531 kts 132°
2026-04-26 16:06 -17.69237 51.27760 34965 ft 531 kts 132°
2026-04-26 16:06 -17.73888 51.33724 34970 ft 531 kts 131°
2026-04-26 16:07 -17.78569 51.39733 34958 ft 531 kts 131°
2026-04-26 16:07 -17.83241 51.45735 34956 ft 531 kts 131°
2026-04-26 16:08 -17.87908 51.51737 34956 ft 531 kts 131°
2026-04-26 16:08 -17.92576 51.57745 34959 ft 530 kts 131°
2026-04-26 16:09 -17.96453 51.62740 34964 ft 530 kts 132°
2026-04-26 16:09 -18.01871 51.69726 34955 ft 531 kts 132°
2026-04-26 16:10 -18.06538 51.75749 34953 ft 531 kts 131°
2026-04-26 16:10 -18.10417 51.80760 34955 ft 531 kts 131°
2026-04-26 16:11 -18.15078 51.86787 34958 ft 531 kts 132°
2026-04-26 16:11 -18.19734 51.92812 34954 ft 531 kts 132°
2026-04-26 16:12 -18.24383 51.98834 34950 ft 531 kts 132°
2026-04-26 16:12 -18.31286 52.07787 34954 ft 531 kts 132°
2026-04-26 16:13 -18.35914 52.13795 34950 ft 531 kts 131°
2026-04-26 16:13 -18.40562 52.19836 34944 ft 531 kts 131°
2026-04-26 16:14 -18.45215 52.25889 34952 ft 531 kts 131°
2026-04-26 16:15 -18.52184 52.34965 34946 ft 530 kts 131°
2026-04-26 16:15 -18.56820 52.41011 34945 ft 530 kts 131°
2026-04-26 16:16 -18.63740 52.50045 34942 ft 530 kts 131°
2026-04-26 16:16 -18.68377 52.56106 34945 ft 530 kts 131°
2026-04-26 16:17 -18.73009 52.62167 34952 ft 530 kts 131°
2026-04-26 16:17 -18.76956 52.67335 34945 ft 530 kts 131°
2026-04-26 16:20 -18.80083 52.71433 34942 ft 530 kts 131°
2026-04-26 16:21 -18.84709 52.77500 34944 ft 530 kts 131°
2026-04-26 16:21 -18.89306 52.83536 34947 ft 530 kts 131°
2026-04-26 16:22 -18.93939 52.89624 34937 ft 531 kts 131°
2026-04-26 16:22 -18.98566 52.95711 34938 ft 531 kts 131°
2026-04-26 16:23 -19.03105 53.01688 34940 ft 531 kts 131°
2026-04-26 16:23 -19.07727 53.07779 34933 ft 531 kts 131°
2026-04-26 16:24 -19.12348 53.13877 34946 ft 531 kts 131°
2026-04-26 16:24 -19.16968 53.19979 34941 ft 532 kts 131°
2026-04-26 16:25 -19.21593 53.26093 34938 ft 532 kts 131°
2026-04-26 16:25 -19.26187 53.32174 34939 ft 532 kts 131°
2026-04-26 16:26 -19.30809 53.38296 34935 ft 532 kts 131°
2026-04-26 16:26 -19.35442 53.44405 34937 ft 531 kts 133°
2026-04-26 16:27 -19.40176 53.50421 34937 ft 531 kts 133°
2026-04-26 16:27 -19.44935 53.56411 34931 ft 531 kts 133°
2026-04-26 16:28 -19.49675 53.62413 34932 ft 531 kts 133°
2026-04-26 16:28 -19.54378 53.68400 34940 ft 531 kts 133°
2026-04-26 16:29 -19.56728 53.71398 34791 ft 527 kts 133°
2026-04-26 16:29 -19.59097 53.74420 33901 ft 535 kts 133°
2026-04-26 16:29 -19.61470 53.77448 33038 ft 534 kts 133°
2026-04-26 16:29 -19.63842 53.80475 32169 ft 533 kts 133°
2026-04-26 16:30 -19.66209 53.83499 31386 ft 531 kts 133°
2026-04-26 16:30 -19.68548 53.86491 30865 ft 523 kts 132°
2026-04-26 16:30 -19.70862 53.89452 30295 ft 518 kts 132°
2026-04-26 16:30 -19.71576 53.90366 30128 ft 516 kts 132°
2026-04-26 16:31 -19.72320 53.91318 29938 ft 514 kts 132°
2026-04-26 16:31 -19.74593 53.94227 29325 ft 508 kts 132°
2026-04-26 16:31 -19.76835 53.97098 28769 ft 501 kts 132°
2026-04-26 16:32 -19.78938 53.99791 28236 ft 496 kts 132°
2026-04-26 16:32 -19.80304 54.01542 27897 ft 492 kts 132°
2026-04-26 16:32 -19.83204 54.05258 27191 ft 484 kts 132°
2026-04-26 16:32 -19.85341 54.07998 26685 ft 479 kts 132°
2026-04-26 16:33 -19.87430 54.10678 26166 ft 474 kts 132°
2026-04-26 16:33 -19.89516 54.13355 25660 ft 469 kts 132°
2026-04-26 16:33 -19.91617 54.16052 25146 ft 464 kts 132°
2026-04-26 16:33 -19.93638 54.18647 24638 ft 461 kts 132°
2026-04-26 16:34 -19.95666 54.21255 24120 ft 447 kts 132°
2026-04-26 16:34 -19.97628 54.23780 23652 ft 441 kts 132°
2026-04-26 16:34 -19.99580 54.26291 23093 ft 438 kts 132°
2026-04-26 16:34 -20.01506 54.28769 22568 ft 434 kts 132°
2026-04-26 16:35 -20.03418 54.31229 22096 ft 430 kts 132°
2026-04-26 16:35 -20.05315 54.33671 21615 ft 426 kts 132°
2026-04-26 16:35 -20.07197 54.36096 21145 ft 422 kts 132°
2026-04-26 16:35 -20.09059 54.38496 20681 ft 419 kts 132°
2026-04-26 16:36 -20.10905 54.40876 20218 ft 415 kts 132°
2026-04-26 16:36 -20.12712 54.43208 19768 ft 412 kts 131°
2026-04-26 16:36 -20.14531 54.45555 19288 ft 410 kts 131°
2026-04-26 16:36 -20.16342 54.47893 18830 ft 407 kts 131°
2026-04-26 16:37 -20.18140 54.50215 18357 ft 405 kts 131°
2026-04-26 16:37 -20.19931 54.52529 17854 ft 403 kts 131°
2026-04-26 16:37 -20.21707 54.54824 17379 ft 400 kts 131°
2026-04-26 16:37 -20.23464 54.57097 16913 ft 396 kts 131°
2026-04-26 16:38 -20.25213 54.59359 16451 ft 393 kts 131°
2026-04-26 16:38 -20.26939 54.61594 16008 ft 390 kts 130°
2026-04-26 16:38 -20.28657 54.63819 15561 ft 386 kts 130°
2026-04-26 16:38 -20.30340 54.65997 15121 ft 383 kts 130°
2026-04-26 16:39 -20.32028 54.68184 14681 ft 381 kts 130°
2026-04-26 16:39 -20.33707 54.70361 14223 ft 378 kts 130°
2026-04-26 16:39 -20.35372 54.72520 13814 ft 375 kts 129°
2026-04-26 16:39 -20.37023 54.74661 13336 ft 372 kts 129°
2026-04-26 16:40 -20.38658 54.76784 12905 ft 369 kts 129°
2026-04-26 16:40 -20.40279 54.78888 12460 ft 365 kts 129°
2026-04-26 16:40 -20.41885 54.80973 12033 ft 362 kts 129°
2026-04-26 16:40 -20.43476 54.83040 11602 ft 359 kts 129°
2026-04-26 16:41 -20.45055 54.85092 11172 ft 356 kts 129°
2026-04-26 16:41 -20.46590 54.87087 10968 ft 347 kts 129°
2026-04-26 16:41 -20.48099 54.89050 10795 ft 337 kts 129°
2026-04-26 16:41 -20.49567 54.90960 10654 ft 327 kts 129°
2026-04-26 16:42 -20.50988 54.92809 10514 ft 317 kts 129°
2026-04-26 16:42 -20.52369 54.94606 10380 ft 308 kts 129°
2026-04-26 16:42 -20.53707 54.96349 10245 ft 298 kts 129°
2026-04-26 16:42 -20.55001 54.98034 10123 ft 289 kts 129°
2026-04-26 16:43 -20.56254 54.99665 10000 ft 280 kts 129°
2026-04-26 16:43 -20.57439 55.01210 9709 ft 278 kts 128°
2026-04-26 16:43 -20.58619 55.02749 9360 ft 263 kts 128°
2026-04-26 16:43 -20.59743 55.04212 9083 ft 251 kts 128°
2026-04-26 16:44 -20.60865 55.05677 8816 ft 259 kts 128°
2026-04-26 16:44 -20.62010 55.07171 8403 ft 261 kts 128°
2026-04-26 16:44 -20.63168 55.08684 7932 ft 263 kts 128°
2026-04-26 16:44 -20.64322 55.10190 7451 ft 260 kts 128°
2026-04-26 16:45 -20.65455 55.11669 7007 ft 254 kts 128°
2026-04-26 16:45 -20.66567 55.13120 6729 ft 251 kts 128°
2026-04-26 16:45 -20.67692 55.14593 6493 ft 261 kts 128°
2026-04-26 16:45 -20.68851 55.16112 6221 ft 264 kts 128°
2026-04-26 16:46 -20.69997 55.17612 5915 ft 263 kts 128°
2026-04-26 16:46 -20.71148 55.19115 5633 ft 260 kts 128°
2026-04-26 16:46 -20.72288 55.20605 5321 ft 254 kts 128°
2026-04-26 16:46 -20.73374 55.22025 4983 ft 239 kts 129°
2026-04-26 16:47 -20.74393 55.23357 4673 ft 228 kts 129°
2026-04-26 16:47 -20.75391 55.24663 4382 ft 225 kts 129°
2026-04-26 16:47 -20.76372 55.25947 4162 ft 219 kts 128°
2026-04-26 16:47 -20.77257 55.27239 3917 ft 214 kts 119°
2026-04-26 16:48 -20.77809 55.28679 3680 ft 209 kts 107°
2026-04-26 16:48 -20.78150 55.30161 3483 ft 202 kts 104°
2026-04-26 16:48 -20.78536 55.31575 3294 ft 196 kts 115°
2026-04-26 16:48 -20.79189 55.32832 3149 ft 188 kts 125°
2026-04-26 16:49 -20.80003 55.33852 3061 ft 172 kts 131°
2026-04-26 16:49 -20.80690 55.34820 2977 ft 155 kts 118°
2026-04-26 16:49 -20.81073 55.35896 3014 ft 157 kts 108°
2026-04-26 16:49 -20.81397 55.37007 2753 ft 156 kts 113°
2026-04-26 16:50 -20.81922 55.37964 2552 ft 142 kts 126°
2026-04-26 16:50 -20.82527 55.38779 2344 ft 140 kts 124°
2026-04-26 16:50 -20.83058 55.39635 2112 ft 141 kts 125°
2026-04-26 16:50 -20.83679 55.40463 1961 ft 142 kts 128°
2026-04-26 16:51 -20.84222 55.41343 1790 ft 142 kts 116°
2026-04-26 16:51 -20.84559 55.42309 1596 ft 139 kts 111°
2026-04-26 16:51 -20.84910 55.43277 1388 ft 140 kts 114°
2026-04-26 16:51 -20.85357 55.44187 1231 ft 135 kts 121°
2026-04-26 16:52 -20.85919 55.45010 1183 ft 138 kts 121°
2026-04-26 16:52 -20.86090 55.45309 1127 ft 141 kts 117°
2026-04-26 16:52 -20.86750 55.46862 791 ft 133 kts 123°
2026-04-26 16:52 -20.87195 55.47717 662 ft 134 kts 118°
2026-04-26 16:53 -20.87577 55.48642 390 ft 144 kts 115°
2026-04-26 16:53 -20.88038 55.49614 230 ft 149 kts 116°
2026-04-26 16:53 -20.88489 55.50576 89 ft 141 kts 117°
2026-04-26 16:53 -20.88890 55.51423 57 ft 110 kts 116°
2026-04-26 16:54 -20.89177 55.52038 53 ft 66 kts 117°
2026-04-26 16:54 -20.89256 55.52192 49 ft 7 kts 134°
2026-04-26 16:54 -20.89302 55.52209 50 ft 7 kts 178°
2026-04-26 16:54 -20.89351 55.52197 51 ft 7 kts 195°
2026-04-26 16:55 -20.89393 55.52167 55 ft 7 kts 231°
2026-04-26 16:55 -20.89397 55.52114 52 ft 8 kts 288°
2026-04-26 16:55 -20.89375 55.52061 50 ft 8 kts 295°
2026-04-26 16:55 -20.89352 55.52010 51 ft 8 kts 296°
2026-04-26 16:56 -20.89302 55.51908 53 ft 8 kts 298°
2026-04-26 16:56 -20.89277 55.51857 53 ft 8 kts 296°
2026-04-26 16:56 -20.89253 55.51805 53 ft 10 kts 296°
2026-04-26 16:57 -20.89188 55.51666 59 ft 25 kts 297°
2026-04-26 16:57 -20.89119 55.51516 55 ft 12 kts 296°
2026-04-26 16:57 -20.89049 55.51364 53 ft 7 kts 291°
2026-04-26 16:58 -20.89060 55.51332 53 ft 5 kts 225°
2026-04-26 16:58 -20.89068 55.51323 57 ft 5 kts 224°
2026-04-26 16:58 -20.89103 55.51300 56 ft 0 kts 210°